sat.trackr.live / text

‹ back to catalog

TJS-5

NORAD 44978 · 2020-002A

PAYLOAD ACTIVE UNKNOWN

§ Identity

Operator
Country
PRC
Launch date
2020-01-07
Launch site
XICLF
Launch vehicle
Mass (kg)
RCS (m²)

Purposes: comms

External: N2YO · Heavens-Above · Gunter

§ Orbital elements

Epoch: 2026-09-13T00:40:50.566656Z

Period
1,436.12 min
Inclination
0.2151°
Eccentricity
0.0007347
Mean motion
1.00270148 rev/d
Perigee alt
35,756.1 km
Apogee alt
35,818.0 km
Semi-major
42,165.2 km
B*
0.0000e+0
RAAN
83.2319°
Arg perigee
348.0619°
Mean anomaly
38.4495°
Rev number
2,459

§ Raw data

TJS-51 44978U 20002A   26256.02836304 -.00000354  00000+0  00000+0 0  99942 44978   0.2151  83.2319 0007347 348.0619  38.4495  1.00270148 24597

JSON: /api/v1/satellites/44978 · /tle

For live sub-satellite position, see the globe view (requires WebGL).

§ Visibility from observer

Set your observer location to see the next 7 days of passes ≥ 10°. The values pass through the URL so the page stays shareable.

No JS? Fill the form by hand. The geolocation button needs JavaScript.